This is the latest recevied weather packets stored in our database for station/object WO5CID. If no packets are shown the sender has not sent any weather packets the latest 10 day(s).
| Time | Temp. | Humidity | Pressure | Rain* | Wind** | Luminosity | Snow |
|---|---|---|---|---|---|---|---|
| 1778177117 | 35° C | 31% | 1013.8 hPa | 0 mm | - | 806 W/m² | - |
| 1778176814 | 35° C | 31% | 1013.8 hPa | 0 mm | - | 508 W/m² | - |
| 1778176510 | 35° C | 31% | 1014.3 hPa | 0 mm | - | 733 W/m² | - |
| 1778176208 | 35° C | 30% | 1014.1 hPa | 0 mm | - | 362 W/m² | - |
| 1778175904 | 35.56° C | 30% | 1014.2 hPa | 0 mm | - | 1068 W/m² | - |
| 1778175602 | 35.56° C | 31% | 1014.2 hPa | 0 mm | - | 452 W/m² | - |
| 1778175299 | 35.56° C | 33% | 1014.6 hPa | 0 mm | - | 964 W/m² | - |
| 1778174996 | 35.56° C | 30% | 1014.3 hPa | 0 mm | - | 964 W/m² | - |
| 1778174692 | 35.56° C | 29% | 1014.6 hPa | 0 mm | - | 975 W/m² | - |
| 1778174389 | 35.56° C | 29% | 1014.5 hPa | 0 mm | - | 942 W/m² | - |
| 1778174084 | 35° C | 31% | 1014.7 hPa | 0 mm | - | 911 W/m² | - |
| 1778173782 | 35° C | 30% | 1014.5 hPa | 0 mm | - | 936 W/m² | - |
| 1778173478 | 34.44° C | 31% | 1014.4 hPa | 0 mm | - | 926 W/m² | - |
| 1778173175 | 35° C | 30% | 1014.7 hPa | 0 mm | - | 929 W/m² | - |
| 1778172871 | 35° C | 30% | 1014.6 hPa | 0 mm | - | 930 W/m² | - |
| 1778172567 | 35° C | 30% | 1014.7 hPa | 0 mm | - | 928 W/m² | - |
| 1778172264 | 35° C | 31% | 1014.7 hPa | 0 mm | - | 930 W/m² | - |
| 1778171961 | 35° C | 30% | 1014.5 hPa | 0 mm | - | 916 W/m² | - |
| 1778171658 | 34.44° C | 34% | 1014.6 hPa | 0 mm | - | 921 W/m² | - |
| 1778171355 | 34.44° C | 34% | 1014.5 hPa | 0 mm | - | 921 W/m² | - |
| 1778171050 | 34.44° C | 35% | 1014.7 hPa | 0 mm | - | 914 W/m² | - |
| 1778170748 | 33.89° C | 35% | 1014.6 hPa | 0 mm | - | 912 W/m² | - |
| 1778170444 | 33.89° C | 35% | 1014.7 hPa | 0 mm | - | 905 W/m² | - |
| 1778170141 | 33.89° C | 35% | 1014.7 hPa | 0 mm | - | 900 W/m² | - |
| 1778169836 | 34.44° C | 36% | 1014.6 hPa | 0 mm | - | 895 W/m² | - |
* Rain latest hour (hover to see other rain measurements)
** Current wind speed in m/s (hover to see current wind gust speed)